START_TIME,STEP,MOV.,M6,t_acc.,M7,t_acc.,M19,t_acc.,H36,t_acc.
1986-01-26 06:00:28.420 ,2,0,0.,12.0,0.,12.0,0.,12.0,0.,12.0
1986-01-26 06:00:40.420 ,2,0,0.,12.0,0.,12.0,0.,12.0,0.,12.0
1986-01-26 06:00:52.420 ,1,1,0.,12.0,0.,12.0,0.,12.0,0.,12.0
1986-01-26 06:01:04.420 ,1,1,0.,12.0,0.,12.0,0.,12.0,0.,12.0
1986-01-26 06:01:16.420 ,1,0,0.,12.0,0.,12.0,0.,12.0,0.,12.0
1986-01-26 06:01:28.420 ,1,0,0.,12.0,0.,12.0,0.,12.0,0.,12.0
1986-01-26 06:01:40.420 ,0,1,0.,12.0,0.,12.0,0.,12.0,0.,12.0
1986-01-26 06:01:52.420 ,0,1,0.,12.0,0.,12.0,0.,12.0,0.,12.0
1986-01-26 06:02:04.420 ,0,0,0.,12.0,0.,12.0,0.,12.0,0.,12.0
1986-01-26 06:02:16.420 ,0,0,0.,12.0,0.,12.0,0.,12.0,0.,12.0
1986-01-26 06:02:28.420 ,0,1,0.,12.0,0.,12.0,0.,12.0,0.,12.0
1986-01-26 06:02:40.420 ,0,1,0.,12.0,0.,12.0,0.,12.0,0.,12.0
1986-01-26 06:02:52.420 ,0,0,0.,12.0,0.,12.0,0.,12.0,0.,12.0
1986-01-26 06:03:04.420 ,0,0,0.,12.0,0.,12.0,0.,12.0,0.,12.0
1986-01-26 06:03:16.420 ,1,1,0.,12.0,0.,12.0,0.,12.0,0.,12.0
1986-01-26 06:03:28.420 ,1,1,0.,12.0,0.,12.0,0.,12.0,0.,12.0
1986-01-26 06:03:40.420 ,1,0,0.,12.0,0.,12.0,0.,12.0,0.,12.0
1986-01-26 06:03:52.420 ,1,0,0.,12.0,0.,12.0,0.,12.0,0.,12.0
1986-01-26 06:04:04.420 ,2,1,0.,12.0,0.,12.0,0.,12.0,0.,12.0
1986-01-26 06:04:16.420 ,2,1,0.,12.0,0.,12.0,0.,12.0,0.,12.0
1986-01-26 06:04:28.420 ,2,0,0.,12.0,0.,12.0,0.,12.0,0.,12.0
1986-01-26 06:04:40.420 ,2,0,0.,12.0,0.,12.0,0.,12.0,0.,12.0
1986-01-26 06:04:52.420 ,3,1,0.,12.0,0.,12.0,0.,12.0,0.,12.0
1986-01-26 06:05:04.420 ,3,1,0.,12.0,0.,12.0,0.,12.0,0.,12.0
1986-01-26 06:05:16.420 ,3,0,0.,12.0,0.,12.0,0.,12.0,0.,12.0
1986-01-26 06:05:28.420 ,3,0,0.,12.0,0.,12.0,0.,12.0,0.,12.0
1986-01-26 06:05:40.420 ,4,1,0.,12.0,0.,12.0,0.,12.0,0.,12.0
1986-01-26 06:05:52.420 ,4,1,0.,12.0,0.,12.0,0.,12.0,0.,12.0
1986-01-26 06:06:04.420 ,4,0,0.,12.0,0.,12.0,0.,12.0,0.,12.0
1986-01-26 06:06:16.420 ,4,0,0.,12.0,0.,12.0,0.,12.0,0.,12.0
1986-01-26 06:06:28.420 ,5,1,0.,12.0,0.,12.0,0.,12.0,0.,12.0
1986-01-26 06:06:40.420 ,5,1,0.,12.0,0.,12.0,0.,12.0,0.,12.0
1986-01-26 06:06:52.420 ,5,0,0.,12.0,0.,12.0,0.,12.0,0.,12.0
1986-01-26 06:07:04.420 ,5,0,0.,12.0,0.,12.0,0.,12.0,0.,12.0
1986-01-26 06:07:16.420 ,6,1,0.,12.0,0.,12.0,0.,12.0,0.,12.0
1986-01-26 06:07:28.420 ,6,1,0.,12.0,0.,12.0,0.,12.0,0.,12.0
1986-01-26 06:07:40.420 ,6,0,0.,12.0,0.,12.0,0.,12.0,0.,12.0
1986-01-26 06:07:52.420 ,6,0,0.,12.0,0.,12.0,0.,12.0,0.,12.0
1986-01-26 06:08:04.420 ,7,1,0.,12.0,0.,12.0,0.,12.0,0.,12.0
1986-01-26 06:08:16.420 ,7,1,0.,12.0,0.,12.0,0.,12.0,0.,12.0
1986-01-26 06:08:28.420 ,7,0,0.,12.0,0.,12.0,0.,12.0,0.,12.0
1986-01-26 06:08:40.420 ,7,0,0.,12.0,0.,12.0,0.,12.0,0.,12.0
1986-01-26 06:08:52.420 ,7,1,0.,12.0,0.,12.0,0.,12.0,0.,12.0
1986-01-26 06:09:04.420 ,7,1,0.,12.0,0.,12.0,0.,12.0,0.,12.0
1986-01-26 06:09:16.420 ,7,0,0.,12.0,0.,12.0,0.,12.0,0.,12.0
1986-01-26 06:09:28.420 ,7,0,0.,12.0,0.,12.0,0.,12.0,0.,12.0
1986-01-26 06:09:40.420 ,6,1,0.,12.0,0.,12.0,0.,12.0,0.,12.0
1986-01-26 06:09:52.420 ,6,1,0.,12.0,0.,12.0,0.,12.0,0.,12.0
1986-01-26 06:10:04.420 ,6,0,0.,12.0,0.,12.0,0.,12.0,0.,12.0
1986-01-26 06:10:16.420 ,6,0,0.,12.0,0.,12.0,0.,12.0,0.,12.0
1986-01-26 06:10:28.420 ,5,1,0.,12.0,0.,12.0,0.,12.0,0.,12.0
1986-01-26 06:10:40.420 ,5,1,0.,12.0,0.,12.0,0.,12.0,0.,12.0
1986-01-26 06:10:52.420 ,5,0,0.,12.0,0.,12.0,0.,12.0,0.,12.0
1986-01-26 06:11:04.420 ,5,0,0.,12.0,0.,12.0,0.,12.0,0.,12.0
1986-01-26 06:11:16.420 ,4,1,0.,12.0,0.,12.0,0.,12.0,0.,12.0
1986-01-26 06:11:28.420 ,4,1,0.,12.0,0.,12.0,0.,12.0,0.,12.0
1986-01-26 06:11:40.420 ,4,0,0.,12.0,0.,12.0,0.,12.0,0.,12.0
1986-01-26 06:11:52.420 ,4,0,0.,12.0,0.,12.0,0.,12.0,0.,12.0
1986-01-26 06:12:04.420 ,3,1,0.,12.0,0.,12.0,0.,12.0,0.,12.0
1986-01-26 06:12:16.420 ,3,1,0.,12.0,0.,12.0,0.,12.0,0.,12.0
1986-01-26 06:12:28.420 ,3,0,0.,12.0,0.,12.0,0.,12.0,0.,12.0
1986-01-26 06:12:40.420 ,3,0,0.,12.0,0.,12.0,0.,12.0,0.,12.0
1986-01-26 06:12:52.420 ,2,1,0.,12.0,0.,12.0,0.,12.0,0.,12.0
1986-01-26 06:13:04.420 ,2,1,0.,12.0,0.,12.0,0.,12.0,0.,12.0
1986-01-26 06:13:16.420 ,2,0,0.,12.0,0.,12.0,0.,12.0,0.,12.0
1986-01-26 06:13:28.420 ,2,0,0.,12.0,0.,12.0,0.,12.0,0.,12.0
1986-01-26 06:13:40.420 ,1,1,0.,12.0,0.,12.0,0.,12.0,0.,12.0
1986-01-26 06:13:52.420 ,1,1,0.,12.0,0.,12.0,0.,12.0,0.,12.0
1986-01-26 06:14:04.420 ,1,0,0.,12.0,0.,12.0,0.,12.0,0.,12.0
1986-01-26 06:14:16.420 ,1,0,0.,12.0,0.,12.0,0.,12.0,0.,12.0
1986-01-26 06:14:28.420 ,0,1,0.,12.0,0.,12.0,0.,12.0,0.,12.0
1986-01-26 06:14:40.420 ,0,1,0.,12.0,0.,12.0,0.,12.0,0.,12.0
1986-01-26 06:14:52.420 ,0,0,0.,12.0,0.,12.0,0.,12.0,0.,12.0
1986-01-26 06:15:04.420 ,0,0,0.,12.0,0.,12.0,0.,12.0,0.,12.0
1986-01-26 06:15:16.420 ,0,1,0.,12.0,0.,12.0,0.,12.0,0.,12.0
1986-01-26 06:15:28.420 ,0,1,0.,12.0,0.,12.0,0.,12.0,0.,12.0
1986-01-26 06:15:40.420 ,0,0,0.,12.0,0.,12.0,0.,12.0,0.,12.0
1986-01-26 06:15:52.420 ,0,0,0.,12.0,0.,12.0,0.,12.0,0.,12.0
1986-01-26 06:16:04.420 ,1,1,0.,12.0,0.,12.0,0.,12.0,0.,12.0
1986-01-26 06:16:16.420 ,1,1,0.,12.0,0.,12.0,0.,12.0,0.,12.0
1986-01-26 06:16:28.420 ,1,0,0.,12.0,0.,12.0,0.,12.0,0.,12.0
1986-01-26 06:16:40.420 ,1,0,0.,12.0,0.,12.0,0.,12.0,0.,12.0
1986-01-26 06:16:52.420 ,2,1,0.,12.0,0.,12.0,0.,12.0,0.,12.0
1986-01-26 06:17:04.420 ,2,1,0.,12.0,0.,12.0,0.,12.0,0.,12.0
1986-01-26 06:17:16.420 ,2,0,0.,12.0,0.,12.0,0.,12.0,0.,12.0
1986-01-26 06:17:28.420 ,2,0,0.,12.0,0.,12.0,0.,12.0,0.,12.0
1986-01-26 06:17:40.420 ,3,1,0.,12.0,0.,12.0,0.,12.0,0.,12.0
1986-01-26 06:17:52.420 ,3,1,0.,12.0,0.,12.0,0.,12.0,0.,12.0
1986-01-26 06:18:04.420 ,3,0,0.,12.0,0.,12.0,0.,12.0,0.,12.0
1986-01-26 06:18:16.420 ,3,0,0.,12.0,0.,12.0,0.,12.0,0.,12.0
1986-01-26 06:18:28.420 ,4,1,0.,12.0,0.,12.0,0.,12.0,0.,12.0
1986-01-26 06:18:40.420 ,4,1,0.,12.0,0.,12.0,0.,12.0,0.,12.0
1986-01-26 06:18:52.420 ,4,0,0.,12.0,0.,12.0,0.,12.0,0.,12.0
1986-01-26 06:19:04.420 ,4,0,0.,12.0,0.,12.0,0.,12.0,0.,12.0
1986-01-26 06:19:16.420 ,5,1,0.,12.0,0.,12.0,0.,12.0,0.,12.0
1986-01-26 06:19:28.420 ,5,1,0.,12.0,0.,12.0,0.,12.0,0.,12.0
1986-01-26 06:19:40.420 ,5,0,0.,12.0,0.,12.0,0.,12.0,0.,12.0
1986-01-26 06:19:52.420 ,5,0,0.,12.0,0.,12.0,0.,12.0,0.,12.0
1986-01-26 06:20:04.420 ,6,1,0.,12.0,0.,12.0,0.,12.0,0.,12.0
1986-01-26 06:20:16.420 ,6,1,0.,12.0,0.,12.0,0.,12.0,0.,12.0
1986-01-26 06:20:28.420 ,6,0,0.,12.0,0.,12.0,0.,12.0,0.,12.0
1986-01-26 06:20:40.420 ,6,0,0.,12.0,0.,12.0,0.,12.0,0.,12.0
1986-01-26 06:20:52.420 ,7,1,0.,12.0,0.,12.0,0.,12.0,0.,12.0
1986-01-26 06:21:04.420 ,7,1,0.,12.0,0.,12.0,0.,12.0,0.,12.0
1986-01-26 06:21:16.420 ,7,0,0.,12.0,0.,12.0,0.,12.0,0.,12.0
1986-01-26 06:21:28.420 ,7,0,0.,12.0,0.,12.0,0.,12.0,0.,12.0
1986-01-26 06:21:40.420 ,7,1,0.,12.0,0.,12.0,0.,12.0,0.,12.0
1986-01-26 06:21:52.420 ,7,1,0.,12.0,0.,12.0,0.,12.0,0.,12.0
1986-01-26 06:22:04.420 ,7,0,0.,12.0,0.,12.0,0.,12.0,0.,12.0
1986-01-26 06:22:16.420 ,7,0,0.,12.0,0.,12.0,0.,12.0,0.,12.0
1986-01-26 06:22:28.420 ,6,1,0.,12.0,0.,12.0,0.,12.0,0.,12.0
1986-01-26 06:22:40.420 ,6,1,0.,12.0,0.,12.0,0.,12.0,0.,12.0
1986-01-26 06:22:52.420 ,6,0,0.,12.0,0.,12.0,0.,12.0,0.,12.0
1986-01-26 06:23:04.420 ,6,0,0.,12.0,0.,12.0,0.,12.0,0.,12.0
1986-01-26 06:23:16.420 ,5,1,0.,12.0,0.,12.0,0.,12.0,0.,12.0
1986-01-26 06:23:28.420 ,5,1,0.,12.0,0.,12.0,0.,12.0,0.,12.0
1986-01-26 06:23:40.420 ,5,0,0.,12.0,0.,12.0,0.,12.0,0.,12.0
1986-01-26 06:23:52.420 ,5,0,0.,12.0,0.,12.0,0.,12.0,0.,12.0
1986-01-26 06:24:04.420 ,4,1,0.,12.0,0.,12.0,0.,12.0,0.,12.0
1986-01-26 06:24:16.420 ,4,1,0.,12.0,0.,12.0,0.,12.0,0.,12.0
1986-01-26 06:24:28.420 ,4,0,0.,12.0,0.,12.0,0.,12.0,0.,12.0
1986-01-26 06:24:40.420 ,4,0,1.,12.0,0.,12.0,0.,12.0,0.,12.0
1986-01-26 06:24:52.420 ,3,1,0.,12.0,0.,12.0,0.,12.0,0.,12.0
1986-01-26 06:25:04.420 ,3,1,0.,12.0,0.,12.0,0.,12.0,0.,12.0
1986-01-26 06:25:16.420 ,3,0,0.,12.0,0.,12.0,0.,12.0,0.,12.0
1986-01-26 06:25:28.420 ,3,0,0.,12.0,0.,12.0,0.,12.0,0.,12.0
1986-01-26 06:25:40.420 ,2,1,0.,12.0,0.,12.0,0.,12.0,0.,12.0
1986-01-26 06:25:52.420 ,2,1,0.,12.0,0.,12.0,0.,12.0,0.,12.0
1986-01-26 06:26:04.420 ,2,0,0.,12.0,0.,12.0,0.,12.0,0.,12.0
1986-01-26 06:26:16.420 ,2,0,0.,12.0,0.,12.0,0.,12.0,0.,12.0
1986-01-26 06:26:28.420 ,1,1,0.,12.0,0.,12.0,0.,12.0,0.,12.0
1986-01-26 06:26:40.420 ,1,1,0.,12.0,0.,12.0,0.,12.0,0.,12.0
1986-01-26 06:26:52.420 ,1,0,0.,12.0,0.,12.0,0.,12.0,0.,12.0
1986-01-26 06:27:04.420 ,1,0,0.,12.0,0.,12.0,0.,12.0,0.,12.0
1986-01-26 06:27:16.420 ,0,1,0.,12.0,0.,12.0,0.,12.0,0.,12.0
1986-01-26 06:27:28.420 ,0,1,0.,12.0,0.,12.0,0.,12.0,0.,12.0
1986-01-26 06:27:40.420 ,0,0,0.,12.0,0.,12.0,0.,12.0,0.,12.0
1986-01-26 06:27:52.420 ,0,0,0.,12.0,0.,12.0,0.,12.0,0.,12.0
1986-01-26 06:28:04.420 ,0,1,0.,12.0,0.,12.0,0.,12.0,0.,12.0
1986-01-26 06:28:16.420 ,0,1,0.,12.0,0.,12.0,0.,12.0,0.,12.0
1986-01-26 06:28:28.420 ,0,0,0.,12.0,0.,12.0,0.,12.0,0.,12.0
1986-01-26 06:28:40.420 ,0,0,0.,12.0,0.,12.0,0.,12.0,0.,12.0
1986-01-26 06:28:52.420 ,1,1,0.,12.0,0.,12.0,0.,12.0,0.,12.0
1986-01-26 06:29:04.420 ,1,1,0.,12.0,0.,12.0,0.,12.0,0.,12.0
1986-01-26 06:29:16.420 ,1,0,0.,12.0,0.,12.0,0.,12.0,0.,12.0
1986-01-26 06:29:28.420 ,1,0,0.,12.0,0.,12.0,0.,12.0,0.,12.0
1986-01-26 06:29:40.420 ,2,1,0.,12.0,0.,12.0,0.,12.0,0.,12.0
1986-01-26 06:29:52.420 ,2,1,0.,12.0,0.,12.0,0.,12.0,0.,12.0
1986-01-26 06:30:04.420 ,2,0,0.,12.0,0.,12.0,0.,12.0,0.,12.0
1986-01-26 06:30:16.420 ,2,0,0.,12.0,0.,12.0,0.,12.0,0.,12.0
1986-01-26 06:30:28.420 ,3,1,0.,12.0,0.,12.0,0.,12.0,0.,12.0
1986-01-26 06:30:40.420 ,3,1,0.,12.0,0.,12.0,0.,12.0,0.,12.0
1986-01-26 06:30:52.420 ,3,0,0.,12.0,0.,12.0,0.,12.0,0.,12.0
1986-01-26 06:31:04.420 ,3,0,0.,12.0,0.,12.0,0.,12.0,0.,12.0
1986-01-26 06:31:16.420 ,4,1,0.,12.0,0.,12.0,0.,12.0,0.,12.0
1986-01-26 06:31:28.420 ,4,1,0.,12.0,0.,12.0,0.,12.0,0.,12.0
1986-01-26 06:31:40.420 ,4,0,0.,12.0,0.,12.0,0.,12.0,0.,12.0
1986-01-26 06:31:52.420 ,4,0,0.,12.0,0.,12.0,0.,12.0,0.,12.0
1986-01-26 06:32:04.420 ,5,1,0.,12.0,0.,12.0,0.,12.0,0.,12.0
1986-01-26 06:32:16.420 ,5,1,0.,12.0,0.,12.0,0.,12.0,0.,12.0
1986-01-26 06:32:28.420 ,5,0,0.,12.0,0.,12.0,0.,12.0,0.,12.0
1986-01-26 06:32:40.420 ,5,0,0.,12.0,0.,12.0,0.,12.0,0.,12.0
1986-01-26 06:32:52.420 ,6,1,0.,12.0,0.,12.0,0.,12.0,0.,12.0
1986-01-26 06:33:04.420 ,6,1,0.,12.0,0.,12.0,0.,12.0,0.,12.0
1986-01-26 06:33:16.420 ,6,0,0.,12.0,0.,12.0,0.,12.0,0.,12.0
1986-01-26 06:33:28.420 ,6,0,0.,12.0,0.,12.0,0.,12.0,0.,12.0
1986-01-26 06:33:40.420 ,7,1,0.,12.0,0.,12.0,0.,12.0,0.,12.0
1986-01-26 06:33:52.420 ,7,1,0.,12.0,0.,12.0,0.,12.0,0.,12.0
1986-01-26 06:34:04.420 ,7,0,0.,12.0,0.,12.0,0.,12.0,0.,12.0
1986-01-26 06:34:16.420 ,7,0,0.,12.0,0.,12.0,0.,12.0,0.,12.0
1986-01-26 06:34:28.420 ,7,1,0.,12.0,0.,12.0,0.,12.0,0.,12.0
1986-01-26 06:34:40.420 ,7,1,0.,12.0,0.,12.0,0.,12.0,0.,12.0
1986-01-26 06:34:52.420 ,7,0,0.,12.0,0.,12.0,0.,12.0,0.,12.0
1986-01-26 06:35:04.420 ,7,0,0.,12.0,0.,12.0,0.,12.0,0.,12.0
1986-01-26 06:35:16.420 ,6,1,0.,12.0,0.,12.0,0.,12.0,0.,12.0
1986-01-26 06:35:28.420 ,6,1,0.,12.0,0.,12.0,0.,12.0,0.,12.0
1986-01-26 06:35:40.420 ,6,0,0.,12.0,0.,12.0,0.,12.0,0.,12.0
1986-01-26 06:35:52.420 ,6,0,0.,12.0,0.,12.0,0.,12.0,0.,12.0
1986-01-26 06:36:04.420 ,5,1,0.,12.0,0.,12.0,0.,12.0,0.,12.0
1986-01-26 06:36:16.420 ,5,1,0.,12.0,0.,12.0,0.,12.0,0.,12.0
1986-01-26 06:36:28.420 ,5,0,0.,12.0,0.,12.0,0.,12.0,0.,12.0
1986-01-26 06:36:40.420 ,5,0,0.,12.0,0.,12.0,0.,12.0,0.,12.0
1986-01-26 06:36:52.420 ,4,1,0.,12.0,0.,12.0,0.,12.0,0.,12.0
1986-01-26 06:37:04.420 ,4,1,0.,12.0,0.,12.0,0.,12.0,0.,12.0
1986-01-26 06:37:16.420 ,4,0,0.,12.0,0.,12.0,0.,12.0,0.,12.0
1986-01-26 06:37:28.420 ,4,0,0.,12.0,0.,12.0,0.,12.0,0.,12.0
1986-01-26 06:37:40.420 ,3,1,0.,12.0,0.,12.0,0.,12.0,0.,12.0
1986-01-26 06:37:52.420 ,3,1,0.,12.0,0.,12.0,0.,12.0,0.,12.0
1986-01-26 06:38:04.420 ,3,0,0.,12.0,0.,12.0,0.,12.0,0.,12.0
1986-01-26 06:38:16.420 ,3,0,0.,12.0,0.,12.0,0.,12.0,0.,12.0
1986-01-26 06:38:28.420 ,2,1,0.,12.0,0.,12.0,0.,12.0,0.,12.0
1986-01-26 06:38:40.420 ,2,1,0.,12.0,0.,12.0,0.,12.0,0.,12.0
1986-01-26 06:38:52.420 ,2,0,0.,12.0,0.,12.0,0.,12.0,0.,12.0
1986-01-26 06:39:04.420 ,2,0,0.,12.0,0.,12.0,0.,12.0,0.,12.0
1986-01-26 06:39:16.420 ,1,1,0.,12.0,0.,12.0,0.,12.0,0.,12.0
1986-01-26 06:39:28.420 ,1,1,0.,12.0,0.,12.0,0.,12.0,0.,12.0
1986-01-26 06:39:40.420 ,1,0,0.,12.0,0.,12.0,0.,12.0,0.,12.0
1986-01-26 06:39:52.420 ,1,0,0.,12.0,0.,12.0,0.,12.0,0.,12.0
1986-01-26 06:40:04.420 ,0,1,0.,12.0,0.,12.0,0.,12.0,0.,12.0
1986-01-26 06:40:16.420 ,0,1,0.,12.0,0.,12.0,0.,12.0,0.,12.0
1986-01-26 06:40:28.420 ,0,0,0.,12.0,0.,12.0,0.,12.0,0.,12.0
1986-01-26 06:40:40.420 ,0,0,0.,12.0,0.,12.0,0.,12.0,0.,12.0
1986-01-26 06:40:52.420 ,0,1,0.,12.0,0.,12.0,0.,12.0,0.,12.0
1986-01-26 06:41:04.420 ,0,1,0.,12.0,0.,12.0,0.,12.0,0.,12.0
1986-01-26 06:41:16.420 ,0,0,0.,12.0,0.,12.0,0.,12.0,0.,12.0
1986-01-26 06:41:28.420 ,0,0,1.,12.0,0.,12.0,0.,12.0,0.,12.0
1986-01-26 06:41:40.420 ,1,1,0.,12.0,0.,12.0,0.,12.0,0.,12.0
1986-01-26 06:41:52.420 ,1,1,0.,12.0,0.,12.0,0.,12.0,0.,12.0
1986-01-26 06:42:04.420 ,1,0,0.,12.0,0.,12.0,0.,12.0,0.,12.0
1986-01-26 06:42:16.420 ,1,0,0.,12.0,0.,12.0,0.,12.0,0.,12.0
1986-01-26 06:42:28.420 ,2,1,0.,12.0,0.,12.0,0.,12.0,0.,12.0
1986-01-26 06:42:40.420 ,2,1,0.,12.0,0.,12.0,0.,12.0,0.,12.0
1986-01-26 06:42:52.420 ,2,0,0.,12.0,0.,12.0,0.,12.0,0.,12.0
1986-01-26 06:43:04.420 ,2,0,0.,12.0,0.,12.0,0.,12.0,0.,12.0
1986-01-26 06:43:16.420 ,3,1,0.,12.0,0.,12.0,0.,12.0,0.,12.0
1986-01-26 06:43:28.420 ,3,1,0.,12.0,0.,12.0,0.,12.0,0.,12.0
1986-01-26 06:43:40.420 ,3,0,0.,12.0,0.,12.0,0.,12.0,0.,12.0
1986-01-26 06:43:52.420 ,3,0,0.,12.0,0.,12.0,0.,12.0,0.,12.0
1986-01-26 06:44:04.420 ,4,1,0.,12.0,0.,12.0,0.,12.0,0.,12.0
1986-01-26 06:44:16.420 ,4,1,0.,12.0,0.,12.0,0.,12.0,0.,12.0
1986-01-26 06:44:28.420 ,4,0,0.,12.0,0.,12.0,0.,12.0,0.,12.0
1986-01-26 06:44:40.420 ,4,0,0.,12.0,0.,12.0,0.,12.0,0.,12.0
1986-01-26 06:44:52.420 ,5,1,0.,12.0,0.,12.0,0.,12.0,0.,12.0
1986-01-26 06:45:04.420 ,5,1,0.,12.0,0.,12.0,0.,12.0,0.,12.0
1986-01-26 06:45:16.420 ,5,0,0.,12.0,0.,12.0,0.,12.0,0.,12.0
1986-01-26 06:45:28.420 ,5,0,0.,12.0,0.,12.0,0.,12.0,0.,12.0
1986-01-26 06:45:40.420 ,6,1,0.,12.0,0.,12.0,0.,12.0,0.,12.0
1986-01-26 06:45:52.420 ,6,1,0.,12.0,0.,12.0,0.,12.0,0.,12.0
1986-01-26 06:46:04.420 ,6,0,0.,12.0,0.,12.0,0.,12.0,0.,12.0
1986-01-26 06:46:16.420 ,6,0,0.,12.0,0.,12.0,0.,12.0,0.,12.0
1986-01-26 06:46:28.420 ,7,1,0.,12.0,0.,12.0,0.,12.0,0.,12.0
1986-01-26 06:46:40.420 ,7,1,0.,12.0,0.,12.0,0.,12.0,0.,12.0
1986-01-26 06:46:52.420 ,7,0,0.,12.0,0.,12.0,0.,12.0,0.,12.0
1986-01-26 06:47:04.420 ,7,0,0.,12.0,0.,12.0,0.,12.0,0.,12.0
1986-01-26 06:47:16.420 ,7,1,0.,12.0,0.,12.0,0.,12.0,0.,12.0
1986-01-26 06:47:28.420 ,7,1,0.,12.0,0.,12.0,0.,12.0,0.,12.0
1986-01-26 06:47:40.420 ,7,0,0.,12.0,0.,12.0,0.,12.0,0.,12.0
1986-01-26 06:47:52.420 ,7,0,0.,12.0,0.,12.0,0.,12.0,0.,12.0
1986-01-26 06:48:04.420 ,6,1,0.,12.0,0.,12.0,0.,12.0,0.,12.0
1986-01-26 06:48:16.420 ,6,1,0.,12.0,0.,12.0,0.,12.0,0.,12.0
1986-01-26 06:48:28.420 ,6,0,0.,12.0,0.,12.0,0.,12.0,0.,12.0
1986-01-26 06:48:40.420 ,6,0,0.,12.0,0.,12.0,0.,12.0,0.,12.0
1986-01-26 06:48:52.420 ,5,1,0.,12.0,0.,12.0,0.,12.0,0.,12.0
1986-01-26 06:49:04.420 ,5,1,0.,12.0,0.,12.0,0.,12.0,0.,12.0
1986-01-26 06:49:16.420 ,5,0,0.,12.0,0.,12.0,0.,12.0,0.,12.0
1986-01-26 06:49:28.420 ,5,0,0.,12.0,0.,12.0,0.,12.0,0.,12.0
1986-01-26 06:49:40.420 ,4,1,0.,12.0,0.,12.0,0.,12.0,0.,12.0
1986-01-26 06:49:52.420 ,4,1,0.,12.0,0.,12.0,0.,12.0,0.,12.0
1986-01-26 06:50:04.420 ,4,0,0.,12.0,0.,12.0,0.,12.0,0.,12.0
1986-01-26 06:50:16.420 ,4,0,0.,12.0,0.,12.0,0.,12.0,0.,12.0
1986-01-26 06:50:28.420 ,3,1,0.,12.0,0.,12.0,0.,12.0,0.,12.0
1986-01-26 06:50:40.420 ,3,1,0.,12.0,0.,12.0,0.,12.0,0.,12.0
1986-01-26 06:50:52.420 ,3,0,0.,12.0,0.,12.0,0.,12.0,0.,12.0
1986-01-26 06:51:04.420 ,3,0,0.,12.0,0.,12.0,0.,12.0,0.,12.0
1986-01-26 06:51:16.420 ,2,1,0.,12.0,0.,12.0,0.,12.0,0.,12.0
1986-01-26 06:51:28.420 ,2,1,0.,12.0,0.,12.0,0.,12.0,0.,12.0
1986-01-26 06:51:40.420 ,2,0,0.,12.0,0.,12.0,0.,12.0,0.,12.0
1986-01-26 06:51:52.420 ,2,0,0.,12.0,0.,12.0,0.,12.0,0.,12.0
1986-01-26 06:52:04.420 ,1,1,0.,12.0,0.,12.0,0.,12.0,0.,12.0
1986-01-26 06:52:16.420 ,1,1,0.,12.0,0.,12.0,0.,12.0,0.,12.0
1986-01-26 06:52:28.420 ,1,0,0.,12.0,0.,12.0,0.,12.0,0.,12.0
1986-01-26 06:52:40.420 ,1,0,0.,12.0,0.,12.0,0.,12.0,0.,12.0
1986-01-26 06:52:52.420 ,0,1,0.,12.0,0.,12.0,0.,12.0,0.,12.0
1986-01-26 06:53:04.420 ,0,1,0.,12.0,0.,12.0,0.,12.0,0.,12.0
1986-01-26 06:53:16.420 ,0,0,0.,12.0,0.,12.0,0.,12.0,0.,12.0
1986-01-26 06:53:28.420 ,0,0,0.,12.0,0.,12.0,0.,12.0,0.,12.0
1986-01-26 06:53:40.420 ,0,1,0.,12.0,0.,12.0,0.,12.0,0.,12.0
1986-01-26 06:53:52.420 ,0,1,0.,12.0,0.,12.0,0.,12.0,0.,12.0
1986-01-26 06:54:04.420 ,0,0,0.,12.0,0.,12.0,0.,12.0,0.,12.0
1986-01-26 06:54:16.420 ,0,0,0.,12.0,0.,12.0,0.,12.0,0.,12.0
1986-01-26 06:54:28.420 ,1,1,0.,12.0,0.,12.0,0.,12.0,0.,12.0
1986-01-26 06:54:40.420 ,1,1,0.,12.0,0.,12.0,0.,12.0,0.,12.0
1986-01-26 06:54:52.420 ,1,0,0.,12.0,0.,12.0,0.,12.0,0.,12.0
1986-01-26 06:55:04.420 ,1,0,0.,12.0,0.,12.0,0.,12.0,0.,12.0
1986-01-26 06:55:16.420 ,2,1,0.,12.0,0.,12.0,0.,12.0,0.,12.0
1986-01-26 06:55:28.420 ,2,1,0.,12.0,0.,12.0,0.,12.0,0.,12.0
1986-01-26 06:55:40.420 ,2,0,0.,12.0,0.,12.0,0.,12.0,0.,12.0
1986-01-26 06:55:52.420 ,2,0,0.,12.0,0.,12.0,0.,12.0,0.,12.0
1986-01-26 06:56:04.420 ,3,1,0.,12.0,0.,12.0,0.,12.0,0.,12.0
1986-01-26 06:56:16.420 ,3,1,0.,12.0,0.,12.0,0.,12.0,0.,12.0
1986-01-26 06:56:28.420 ,3,0,0.,12.0,0.,12.0,0.,12.0,0.,12.0
1986-01-26 06:56:40.420 ,3,0,0.,12.0,0.,12.0,0.,12.0,0.,12.0
1986-01-26 06:56:52.420 ,4,1,0.,12.0,0.,12.0,0.,12.0,0.,12.0
1986-01-26 06:57:04.420 ,4,1,0.,12.0,0.,12.0,0.,12.0,0.,12.0
1986-01-26 06:57:16.420 ,4,0,0.,12.0,0.,12.0,0.,12.0,0.,12.0
1986-01-26 06:57:28.420 ,4,0,0.,12.0,0.,12.0,0.,12.0,0.,12.0
1986-01-26 06:57:40.420 ,5,1,0.,12.0,0.,12.0,0.,12.0,0.,12.0
1986-01-26 06:57:52.420 ,5,1,0.,12.0,0.,12.0,0.,12.0,0.,12.0
1986-01-26 06:58:04.420 ,5,0,0.,12.0,0.,12.0,0.,12.0,0.,12.0
1986-01-26 06:58:16.420 ,5,0,0.,12.0,0.,12.0,0.,12.0,0.,12.0
1986-01-26 06:58:28.420 ,6,1,0.,12.0,0.,12.0,0.,12.0,0.,12.0
1986-01-26 06:58:40.420 ,6,1,0.,12.0,0.,12.0,0.,12.0,0.,12.0
1986-01-26 06:58:52.420 ,6,0,0.,12.0,0.,12.0,0.,12.0,0.,12.0
1986-01-26 06:59:04.420 ,6,0,0.,12.0,0.,12.0,0.,12.0,0.,12.0
1986-01-26 06:59:16.420 ,7,1,0.,12.0,0.,12.0,0.,12.0,0.,12.0
1986-01-26 06:59:28.420 ,7,1,0.,12.0,0.,12.0,0.,12.0,0.,12.0
1986-01-26 06:59:40.420 ,0,0,0.,12.0,0.,12.0,0.,12.0,0.,12.0
1986-01-26 06:59:52.420 ,0,0,,0,,0,,0,,0
1986-01-26 07:20:51.210 ,0,0,,0,,0,,0,,0
1986-01-26 07:21:03.210 ,0,0,,0,,0,,0,,0
1986-01-26 07:20:52.410 ,0,0,0.,12.0,0.,12.0,0.,12.0,0.,12.0
1986-01-26 07:21:04.410 ,0,0,0.,12.0,0.,12.0,0.,12.0,0.,12.0
1986-01-26 07:21:16.410 ,0,0,0.,12.0,0.,12.0,0.,12.0,0.,12.0
1986-01-26 07:21:28.410 ,0,0,0.,12.0,0.,12.0,0.,12.0,0.,12.0
1986-01-26 07:21:40.410 ,3,1,0.,12.0,0.,12.0,0.,12.0,0.,12.0
1986-01-26 07:21:52.410 ,3,1,0.,12.0,0.,12.0,0.,12.0,0.,12.0
1986-01-26 07:22:04.410 ,3,0,0.,12.0,0.,12.0,0.,12.0,0.,12.0
1986-01-26 07:22:16.410 ,3,0,0.,12.0,0.,12.0,0.,12.0,0.,12.0
1986-01-26 07:22:28.410 ,4,1,0.,12.0,0.,12.0,0.,12.0,0.,12.0
1986-01-26 07:22:40.410 ,4,1,0.,12.0,0.,12.0,0.,12.0,0.,12.0
1986-01-26 07:22:52.410 ,4,0,0.,12.0,0.,12.0,0.,12.0,0.,12.0
1986-01-26 07:23:04.410 ,4,0,0.,12.0,0.,12.0,0.,12.0,0.,12.0
1986-01-26 07:23:16.410 ,5,1,0.,12.0,0.,12.0,0.,12.0,0.,12.0
1986-01-26 07:23:28.410 ,5,1,0.,12.0,0.,12.0,0.,12.0,0.,12.0
1986-01-26 07:23:40.410 ,5,0,0.,12.0,0.,12.0,0.,12.0,0.,12.0
1986-01-26 07:23:52.410 ,5,0,0.,12.0,0.,12.0,0.,12.0,0.,12.0
1986-01-26 07:24:04.410 ,6,1,0.,12.0,0.,12.0,0.,12.0,0.,12.0
1986-01-26 07:24:16.410 ,6,1,0.,12.0,0.,12.0,0.,12.0,0.,12.0
1986-01-26 07:24:28.410 ,6,0,0.,12.0,0.,12.0,0.,12.0,0.,12.0
1986-01-26 07:24:40.410 ,6,0,0.,12.0,0.,12.0,0.,12.0,0.,12.0
1986-01-26 07:24:52.410 ,7,1,0.,12.0,0.,12.0,0.,12.0,0.,12.0
1986-01-26 07:25:04.410 ,7,1,0.,12.0,0.,12.0,0.,12.0,0.,12.0
1986-01-26 07:25:16.410 ,7,0,0.,12.0,0.,12.0,0.,12.0,0.,12.0
1986-01-26 07:25:28.410 ,7,0,0.,12.0,0.,12.0,0.,12.0,0.,12.0
1986-01-26 07:25:40.410 ,7,1,0.,12.0,0.,12.0,0.,12.0,0.,12.0
1986-01-26 07:25:52.410 ,7,1,0.,12.0,0.,12.0,0.,12.0,0.,12.0
1986-01-26 07:26:04.410 ,7,0,0.,12.0,0.,12.0,0.,12.0,0.,12.0
1986-01-26 07:26:16.410 ,7,0,0.,12.0,0.,12.0,0.,12.0,0.,12.0
1986-01-26 07:26:04.410 ,7,0,0.,12.0,0.,12.0,0.,12.0,0.,12.0
1986-01-26 07:26:16.410 ,7,0,0.,12.0,0.,12.0,0.,12.0,0.,12.0
1986-01-26 07:26:28.410 ,6,1,0.,12.0,0.,12.0,0.,12.0,0.,12.0
1986-01-26 07:26:40.410 ,6,1,0.,12.0,0.,12.0,0.,12.0,0.,12.0
1986-01-26 07:26:52.410 ,6,0,0.,12.0,0.,12.0,0.,12.0,0.,12.0
1986-01-26 07:27:04.410 ,6,0,0.,12.0,0.,12.0,0.,12.0,0.,12.0
1986-01-26 07:27:16.410 ,5,1,0.,12.0,0.,12.0,0.,12.0,0.,12.0
1986-01-26 07:27:28.410 ,5,1,0.,12.0,0.,12.0,0.,12.0,0.,12.0
1986-01-26 07:27:40.410 ,5,0,0.,12.0,0.,12.0,0.,12.0,0.,12.0
1986-01-26 07:27:52.410 ,5,0,0.,12.0,0.,12.0,0.,12.0,0.,12.0
1986-01-26 07:28:04.410 ,4,1,0.,12.0,0.,12.0,0.,12.0,0.,12.0
1986-01-26 07:28:16.410 ,4,1,0.,12.0,0.,12.0,0.,12.0,0.,12.0
1986-01-26 07:28:28.410 ,4,0,0.,12.0,0.,12.0,0.,12.0,0.,12.0
1986-01-26 07:28:40.410 ,4,0,0.,12.0,0.,12.0,0.,12.0,0.,12.0
1986-01-26 07:28:52.410 ,3,1,0.,12.0,0.,12.0,0.,12.0,0.,12.0
1986-01-26 07:29:04.410 ,3,1,0.,12.0,0.,12.0,0.,12.0,0.,12.0
1986-01-26 07:29:16.410 ,3,0,0.,12.0,0.,12.0,0.,12.0,0.,12.0
1986-01-26 07:29:28.410 ,3,0,0.,12.0,0.,12.0,0.,12.0,0.,12.0
1986-01-26 07:29:40.410 ,2,1,0.,12.0,0.,12.0,0.,12.0,0.,12.0
1986-01-26 07:29:52.410 ,2,1,0.,12.0,0.,12.0,0.,12.0,0.,12.0
1986-01-26 07:30:04.410 ,2,0,0.,12.0,0.,12.0,0.,12.0,0.,12.0
1986-01-26 07:30:16.410 ,2,0,0.,12.0,0.,12.0,0.,12.0,0.,12.0
1986-01-26 07:30:28.410 ,1,1,0.,12.0,0.,12.0,0.,12.0,0.,12.0
1986-01-26 07:30:40.410 ,1,1,0.,12.0,0.,12.0,0.,12.0,0.,12.0
1986-01-26 07:30:52.410 ,1,0,0.,12.0,0.,12.0,0.,12.0,0.,12.0
1986-01-26 07:31:04.410 ,1,0,0.,12.0,0.,12.0,0.,12.0,0.,12.0
1986-01-26 07:31:16.410 ,0,1,0.,12.0,0.,12.0,0.,12.0,0.,12.0
1986-01-26 07:31:28.410 ,0,1,0.,12.0,0.,12.0,0.,12.0,0.,12.0
1986-01-26 07:31:40.410 ,0,0,0.,12.0,0.,12.0,0.,12.0,0.,12.0
1986-01-26 07:31:52.410 ,0,0,0.,12.0,0.,12.0,0.,12.0,0.,12.0
1986-01-26 07:32:04.410 ,0,1,0.,12.0,0.,12.0,0.,12.0,0.,12.0
1986-01-26 07:32:16.410 ,0,1,0.,12.0,0.,12.0,0.,12.0,0.,12.0
1986-01-26 07:32:28.410 ,0,0,0.,12.0,0.,12.0,0.,12.0,0.,12.0
1986-01-26 07:32:40.410 ,0,0,0.,12.0,0.,12.0,0.,12.0,0.,12.0
1986-01-26 07:32:52.410 ,1,1,0.,12.0,0.,12.0,0.,12.0,0.,12.0
1986-01-26 07:33:04.410 ,1,1,0.,12.0,0.,12.0,0.,12.0,0.,12.0
1986-01-26 07:33:16.410 ,1,0,0.,12.0,0.,12.0,0.,12.0,0.,12.0
1986-01-26 07:33:28.410 ,1,0,0.,12.0,0.,12.0,0.,12.0,0.,12.0
1986-01-26 07:33:40.410 ,2,1,0.,12.0,0.,12.0,0.,12.0,0.,12.0
1986-01-26 07:33:52.410 ,2,1,0.,12.0,0.,12.0,0.,12.0,0.,12.0
1986-01-26 07:34:04.410 ,2,0,0.,12.0,0.,12.0,0.,12.0,0.,12.0
1986-01-26 07:34:16.410 ,2,0,0.,12.0,0.,12.0,0.,12.0,0.,12.0
1986-01-26 07:34:28.410 ,3,1,0.,12.0,0.,12.0,0.,12.0,0.,12.0
1986-01-26 07:34:40.410 ,3,1,0.,12.0,0.,12.0,0.,12.0,0.,12.0
1986-01-26 07:34:52.410 ,3,0,0.,12.0,0.,12.0,0.,12.0,0.,12.0
1986-01-26 07:35:04.410 ,3,0,0.,12.0,0.,12.0,0.,12.0,0.,12.0
1986-01-26 07:35:16.410 ,4,1,0.,12.0,0.,12.0,0.,12.0,0.,12.0
1986-01-26 07:35:28.410 ,4,1,0.,12.0,0.,12.0,0.,12.0,0.,12.0
1986-01-26 07:35:40.410 ,4,0,0.,12.0,0.,12.0,0.,12.0,0.,12.0
1986-01-26 07:35:52.410 ,4,0,0.,12.0,0.,12.0,0.,12.0,0.,12.0
1986-01-26 07:36:04.410 ,5,1,0.,12.0,0.,12.0,0.,12.0,0.,12.0
1986-01-26 07:36:16.410 ,5,1,0.,12.0,0.,12.0,0.,12.0,0.,12.0
1986-01-26 07:36:28.410 ,5,0,0.,12.0,0.,12.0,0.,12.0,0.,12.0
1986-01-26 07:36:40.410 ,5,0,0.,12.0,0.,12.0,0.,12.0,0.,12.0
1986-01-26 07:36:52.410 ,6,1,0.,12.0,0.,12.0,0.,12.0,0.,12.0
1986-01-26 07:37:04.410 ,6,1,0.,12.0,0.,12.0,0.,12.0,0.,12.0
1986-01-26 07:37:16.410 ,6,0,0.,12.0,0.,12.0,0.,12.0,0.,12.0
1986-01-26 07:37:28.410 ,6,0,0.,12.0,0.,12.0,0.,12.0,0.,12.0
1986-01-26 07:37:40.410 ,7,1,0.,12.0,0.,12.0,0.,12.0,0.,12.0